Weather History for KOFP - March, 2013

Change the Weather History Date:

Thursday, March 7, 2013

  Actual Average Record
Temperature  
Mean Temperature 41 °F -  
Max Temperature 48 °F 56 °F 83 °F (1956)
Min Temperature 34 °F 32 °F 7 °F (1960)
Degree Days  
Heating Degree Days 24    
Moisture  
Dew Point 27 °F    
Average Humidity 60    
Maximum Humidity 76    
Minimum Humidity 42    
Precipitation  
Precipitation 0.00 in - - ()
Sea Level Pressure  
Sea Level Pressure 30.11 in    
Wind  
Wind Speed 8 mph (NW)    
Max Wind Speed 17 mph    
Max Gust Speed 30 mph    
Visibility 10 miles    
Events      
Averages and records for this station are not official NWS values.
T = Trace of Precipitation, MM = Missing Value Source: NWS Daily Summary

Daily Weather History Graph

Daily Weather History Graph

Search for Another Location

Airport or City:

Trip Planner

Search our weather history database for the weather conditions in past years. The results will help you decide how hot, cold, wet, or windy it might be!

Date:

Astronomy

Mar. 07, 2013 Rise Set
Actual Time 6:32 AM EST 6:09 PM EST
Civil Twilight 6:06 AM EST 6:35 PM EST
Nautical Twilight 5:35 AM EST 7:06 PM EST
Astronomical Twilight 5:05 AM EST 7:36 PM EST
Moon 3:26 AM EST (3/7) 1:58 PM EST (3/7)
Length of Visible Light 12h 29m
Length of Day
11h 37m
Waning Crescent, 20% of the Moon is Illuminated
Mar 7
Waning Crescent
Mar 11
New
Mar 19
First Quarter
Mar 27
Full
Apr 3
Last Quarter

Hourly Weather History & Observations

Time (EST) Temp. Windchill Dew Point Humidity Pressure Visibility Wind Dir Wind Speed Gust Speed Precip Events Conditions
12:54 AM 37.9 °F 32.1 °F 30.0 °F 73% 30.01 in 10.0 mi NW 8.1 mph - N/A   Overcast
1:54 AM 37.9 °F 33.5 °F 28.9 °F 70% 30.01 in 10.0 mi NW 5.8 mph - N/A   Partly Cloudy
2:54 AM 37.9 °F 32.7 °F 28.9 °F 70% 30.01 in 10.0 mi NW 6.9 mph - N/A   Clear
3:54 AM 37.0 °F 31.6 °F 28.9 °F 73% 30.04 in 10.0 mi NNW 6.9 mph - N/A   Clear
4:54 AM 37.0 °F 34.5 °F 28.9 °F 73% 30.05 in 10.0 mi NW 3.5 mph - N/A   Clear
5:54 AM 35.1 °F 31.0 °F 28.0 °F 76% 30.08 in 10.0 mi NW 4.6 mph - N/A   Clear
6:54 AM 35.1 °F 30.1 °F 28.0 °F 76% 30.09 in 10.0 mi Variable 5.8 mph - N/A   Clear
7:54 AM 37.9 °F 35.5 °F 28.9 °F 70% 30.11 in 10.0 mi Variable 3.5 mph - N/A   Clear
8:54 AM 41.0 °F 35.2 °F 30.0 °F 65% 30.13 in 10.0 mi NNW 9.2 mph - N/A   Clear
9:54 AM 43.0 °F 36.8 °F 28.0 °F 56% 30.14 in 10.0 mi NW 11.5 mph 23.0 mph N/A   Clear
10:54 AM 44.1 °F 36.5 °F 26.1 °F 49% 30.13 in 10.0 mi NW 17.3 mph 23.0 mph N/A   Mostly Cloudy
11:54 AM 46.9 °F - 26.1 °F 44% 30.13 in 10.0 mi NNW 12.7 mph 29.9 mph N/A   Scattered Clouds
12:54 PM 48.0 °F - 26.1 °F 42% 30.11 in 10.0 mi NNW 8.1 mph 26.5 mph N/A   Partly Cloudy
1:54 PM 48.0 °F - 26.1 °F 42% 30.10 in 10.0 mi NW 17.3 mph 26.5 mph N/A   Partly Cloudy
2:54 PM 46.9 °F - 26.1 °F 44% 30.11 in 10.0 mi NW 15.0 mph 27.6 mph N/A   Mostly Cloudy
3:54 PM 46.0 °F 41.0 °F 24.1 °F 42% 30.12 in 10.0 mi NNW 10.4 mph 24.2 mph N/A   Mostly Cloudy
4:54 PM 46.0 °F 41.4 °F 25.0 °F 44% 30.13 in 10.0 mi NW 9.2 mph 21.9 mph N/A   Partly Cloudy
5:54 PM 44.1 °F 38.6 °F 26.1 °F 49% 30.15 in 10.0 mi NW 10.4 mph 18.4 mph N/A   Partly Cloudy
6:54 PM 41.0 °F 35.2 °F 27.0 °F 57% 30.17 in 10.0 mi NW 9.2 mph - N/A   Clear
7:54 PM 39.0 °F 35.7 °F 26.1 °F 60% 30.19 in 10.0 mi Variable 4.6 mph - N/A   Partly Cloudy
8:54 PM 37.0 °F 33.3 °F 26.1 °F 65% 30.18 in 10.0 mi NW 4.6 mph - N/A   Clear
9:54 PM 35.1 °F 32.2 °F 26.1 °F 70% 30.19 in 10.0 mi West 3.5 mph - N/A   Clear
10:54 PM 34.0 °F 31.0 °F 25.0 °F 70% 30.19 in 10.0 mi West 3.5 mph - N/A   Clear
11:54 PM 35.1 °F 32.2 °F 24.1 °F 64% 30.18 in 10.0 mi WNW 3.5 mph - N/A   Clear